Regional Weather Roundup
Issued by NWS

Home | Current Version | Previous Version | Text Only | Print | Product List | Glossary Off
Versions: 1 2 3 4 5 6 7 8 9 10 11 12 13 14 15 16 17 18 19 20 21 22 23 24 25 26 27 28 29 30 31 32 33 34 35 36 37 38 39 40 41 42 43 44 45 46 47 48 49 50

000
ASUS43 KFSD 251702
RWRSD

WEATHER ROUNDUP FOR SOUTH DAKOTA
NATIONAL WEATHER SERVICE SIOUX FALLS SD
1200 PM CDT SAT APR 25 2015

NOTE: "FAIR" INDICATES FEW OR NO CLOUDS BELOW 12,000 FEET WITH NO
SIGNIFICANT WEATHER AND/OR OBSTRUCTIONS TO VISIBILITY.


SDZ001>005-009-010-012>017-251800-
NORTHWEST AND NORTH CENTRAL SOUTH DAKOTA

CITY           SKY/WX    TMP DP  RH WIND       PRES   REMARKS
BUFFALO          N/A     47  43  86 SE13      29.66R
FAITH            N/A     46  43  89 E13       29.74S
MOBRIDGE       CLOUDY    47  43  86 E16       29.77R FOG
$$

SDZ012>016-024>037-041>051-057-063-072>074-251800-
SOUTHWEST AND SOUTH CENTRAL SOUTH DAKOTA

CITY           SKY/WX    TMP DP  RH WIND       PRES   REMARKS
RAPID CTY ARPT FOG       47  46  97 E10       29.72R VSB 1
PIERRE         CLOUDY    47  47 100 E13       29.75S FOG
CUSTER         MOSUNNY   55  38  52 VRB5      29.73S
ELLSWORTH AFB  CLOUDY    47  47 100 SE12      29.71
PHILIP         CLOUDY    48  45  89 E9        29.74R
PINE RIDGE     CLOUDY    47  45  93 W5        29.73S FOG
WINNER         CLOUDY    54  47  77 E15       29.74R
$$

SDZ004>011-016>023-039-040-251800-
NORTHEAST SOUTH DAKOTA

CITY           SKY/WX    TMP DP  RH WIND       PRES   REMARKS
ABERDEEN       CLOUDY    47  42  83 E13       29.82S
WATERTOWN      CLOUDY    44  40  85 E12       29.81R FOG
BROOKINGS      CLOUDY    46  43  87 NE9       29.80R
SISSETON         N/A     44  43  96 SE10      29.85R
$$

SDZ017-020-022-023-036>040-048>070-251800-
SOUTHEAST SOUTH DAKOTA

CITY           SKY/WX    TMP DP  RH WIND       PRES   REMARKS
SIOUX FALLS    CLOUDY    55  43  63 E10       29.74R
HURON          CLOUDY    49  43  80 E9        29.79R
MITCHELL       CLOUDY    50  45  83 NE8       29.78R
YANKTON        CLOUDY    54  43  66 E12       29.73R
$$

ABBREVIATIONS USED IN REMARKS
   TC - TEMPERATURE IN CELSIUS
  WCI - WIND CHILL INDEX
   HX - HEAT INDEX
  VSB - VISIBILITY




USA.gov is the U.S. government's official web portal to all federal, state and local government web resources and services.